www.pogodaiklimat.ru

Погода и климат >> Архив погоды >> Аргентина >> Сан-Рамон-де-ла-Нуэва-Оран


ПОГОДА в Сан-Рамон-де-ла-Нуэва-Оране

  • Прогноз погоды в Сан-Рамон-де-ла-Нуэва-Оране
  • Монитор погоды в Сан-Рамон-де-ла-Нуэва-Оране

АРХИВ ПОГОДЫ в Сан-Рамон-де-ла-Нуэва-Оране

Время (UTC), дата Ветер
(напр.,м/с)
 
Видим.   Явления Облачность Т
(С)
Тd
(С)
f
(%)
Тe
(С)
Тes
(С)
Комфортность P
(гПа)
Po
(гПа)
Тmin
(С)
Tmax
(С)
R
(мм)
R24
(мм)
S
(см)
06 19.04 штиль 0 10 км 10/10 600 м
[Sc]
+21.5 +20.4 93 +27 +27 душно 1005.7 965.4
09 19.04 штиль 0 10 км 10/10 600 м
[Sc]
+22.0 +20.5 91 +28 +28 душно 1005.5 965.2
12 19.04 штиль 0 8000 м дымка 9/9 600 м
[Sc]
+22.8 +22.1 96 +31 +31 очень
душно
1007.4 967.0 +21.5 +23.5 0.3
15 19.04 ЮВ 3 10 км 6/3 600 м
[Sc Ac und]
+27.2 +22.5 76 +36 +42 очень
душно
1007.2 967.0
18 19.04 штиль 0 10 км 8/3 600 м
[Cu hum Ac und]
+28.5 +23.3 73 +38 +44 очень
душно
1004.8 964.8
21 19.04 штиль 0 10 км 5/3 600 м
[Cu hum Ac und]
+29.5 +23.6 71 +40 +41 очень
душно
1003.1 963.2
00 20.04 штиль 0 10 км 5/5 600 м
[Sc]
+25.3 +23.3 89 +34 +34 очень
душно
1005.0 964.8 +22.8 +29.8
03 20.04 штиль 0 10 км 5/5 600 м
[Sc]
+23.2 +21.6 91 +31 +31 очень
душно
1006.4 966.2
06 20.04 Ю 1 10 км 5/5 600 м
[Sc]
+22.8 +21.3 91 +30 +30 очень
душно
1006.3 966.2
09 20.04 Ю 1 10 км 6/6 600 м
[Sc]
+23.3 +22.6 96 +32 +32 очень
душно
1005.8 965.8
12 20.04 Ю 3 10 км 9/9 600 м
[Sc]
+24.2 +22.3 89 +31 +32 очень
душно
1007.6 967.4 +22.8 +25.3
15 20.04 Ю 3 10 км 8/3 600 м
[Cu hum Ac und]
+27.2 +23.5 80 +37 +41 очень
душно
1007.8 967.7
18 20.04 ЮВ 3 10 км 9/4 600 м
[Cu hum Ac und]
+29.8 +23.8 70 +41 +43 опасность
перегрева
1004.9 965.4
21 20.04 ЮВ 1 10 км 8/8 600 м
[Cu med, cong]
+28.2 +23.5 76 +38 +39 очень
душно
1004.6 964.6
00 21.04 штиль 0 10 км 9/9 600 м
[Sc]
+25.8 +24.2 91 +36 +36 очень
душно
1007.0 966.9 +24.2 +30.7
03 21.04 штиль 0 10 км 6/6 600 м
[Sc]
+24.4 +22.3 88 +32 +32 очень
душно
1008.5 968.4
06 21.04 штиль 0 10 км 10/10 600 м
[Sc]
+23.6 +21.8 90 +30 +30 очень
душно
1007.5 967.6
09 21.04 штиль 0 1500 м слаб. морось 10/10 180 м
[Frnb]
+22.4 +21.8 96 +30 +30 очень
душно
1007.5 967.4
12 21.04 штиль 0 1500 м слаб. морось 10/10 150 м
[Frnb]
+22.1 +21.8 98 +29 +29 очень
душно
1009.7 969.3 +21.9 +25.8 3
15 21.04 ЮВ 1 10 км {морось} 10/10 300 м
[Cu Sc]
+24.2 +21.8 86 +31 +31 очень
душно
1010.1 969.8
18 21.04 Ю 3 4000 м в посл. час дождь {морось} 10/10 210 м
[Frnb]
+24.4 +22.6 90 +32 +32 очень
душно
1008.0 967.7 0.5
21 21.04 ЮЗ 1 10 км 9/9 600 м
[Sc]
+25.0 +22.4 86 +33 +33 очень
душно
1006.8 966.5
00 22.04 штиль 0 10 км 10/10 600 м
[Sc]
+23.8 +22.0 90 +31 +31 очень
душно
1009.3 968.8 +22.1 +26.2
03 22.04 Ю 1 800 м слаб. дождь 10/5 210 м
[Frnb As op]
+21.4 +20.8 96 +27 +27 душно 1011.1 970.5
06 22.04 штиль 0 5000 м в посл. час дождь 10/4 210 м
[Frnb As op]
+20.2 +19.9 98 +24 +24 комфорт 1010.4 969.8 18
09 22.04 штиль 0 6000 м в посл. час дождь 10/5 210 м
[Frnb As op]
+20.2 +19.3 95 +24 +24 комфорт 1009.7 969.2
12 22.04 штиль 0 4000 м осадки на расстоянии 10/10 210 м
[Frnb]
+20.2 +19.4 95 +24 +24 комфорт 1011.9 971.2 +19.6 +23.8 0.8
15 22.04 ЮВ 3 2000 м слаб. дождь 10/10 180 м
[Frnb Ns]
+20.6 +19.5 93 +25 +25 комфорт 1012.9 972.0
18 22.04 ЮВ 3 10 км {дождь} 10/10 300 м
[Sc]
+21.4 +18.9 86 +26 +26 душно 1010.4 969.6 0.1
21 22.04 ЮВ 3 1000 м слаб. морось 10/10 150 м
[Frnb]
+19.8 +19.3 97 +23 +23 комфорт 1009.9 969.0
00 23.04 Ю 3 1500 м слаб. морось 10/10 150 м
[Frnb]
+17.6 +17.1 97 +18 +18 1013.4 972.2 +17.6 +21.5 0.6
03 23.04 Ю 1 1000 м слаб. морось 10/10 150 м
[Frnb]
+16.1 +15.8 98 +17 +17 1016.4 975.0
06 23.04 ЮВ 1 1500 м слаб. морось 10/10 150 м
[Frnb]
+15.4 +14.9 97 +16 +16 1015.6 974.2 3
09 23.04 ЮВ 1 3000 м слаб. морось 10/10 150 м
[Frnb]
+15.1 +14.6 97 +16 +16 1015.9 974.4
12 23.04 штиль 0 500 м слаб. морось 10/10 150 м
[Frnb]
+15.4 +15.1 98 +15 +15 1017.4 975.7 +14.8 +17.6 0.7
15 23.04 штиль 0 600 м слаб. морось 10/10 150 м
[Frnb]
+17.6 +16.3 92 +18 +18 1017.2 975.6
18 23.04 В 3 400 м слаб. морось 10/10 150 м
[Frnb]
+17.7 +16.9 95 +18 +18 1015.1 973.4 0.4
21 23.04 ЮВ 4 3000 м слаб. морось 10/10 180 м
[Frnb]
+17.1 +16.1 94 +17 +17 1014.0 972.4
00 24.04 ЮВ 3 800 м слаб. морось 10/10 150 м
[Frnb]
+16.0 +15.7 98 +16 +16 1016.1 974.4 +15.4 +18.5 2
03 24.04 штиль 0 500 м слаб. морось 10/10 150 м
[Frnb]
+15.5 +15.2 98 +15 +15 1017.9 976.2
06 24.04 штиль 0 2000 м слаб. морось 10/10 150 м
[Frnb]
+15.3 +15.0 98 +15 +15 1017.7 976.0 2
09 24.04 ЮВ 3 10 км в посл. час морось 10/10 150 м
[Frnb]
+15.2 +14.9 98 +15 +15 1016.5 974.8
12 24.04 штиль 0 8000 м осадки на расстоянии {морось} 10/10 240 м
[Frnb]
+15.4 +14.9 97 +15 +15 1017.6 975.8 +15.0 +16.0 0.2
15 24.04 ЮВ 1 800 м слаб. морось 10/10 150 м
[Frnb]
+17.2 +16.2 94 +18 +18 1016.9 975.2
18 24.04 ЮВ 3 10 км {морось} 10/10 240 м
[Frnb]
+18.4 +15.7 84 +19 +19 1013.3 971.8 0.2
21 24.04 ЮВ 1 800 м слаб. морось 10/10 150 м
[Frnb]
+17.0 +16.3 96 +18 +18 1012.4 970.9
00 25.04 ЮВ 1 500 м слаб. морось 10/10 150 м
[Frnb]
+16.2 +15.9 98 +17 +17 1014.8 973.0 +15.4 +19.0 3
03 25.04 ЮВ 1 800 м слаб. морось 10/10 150 м
[Frnb]
+16.0 +15.7 98 +17 +17 1016.7 975.0
06 25.04 штиль 0 5000 м в посл. час морось 10/10 150 м
[Frnb]
+15.8 +15.5 98 +16 +16 1015.9 974.4 3
09 25.04 ЮВ 1 1500 м слаб. морось 10/10 150 м
[Frnb]
+15.8 +15.3 97 +16 +16 1015.3 973.7
12 25.04 штиль 0 10 км в посл. час морось 10/10 240 м
[Frnb]
+16.3 +15.5 95 +16 +16 1016.6 974.9 +15.5 +16.3 0.5
15 25.04 штиль 0 10 км в посл. час морось 10/10 300 м
[Frnb]
+17.2 +15.3 89 +17 +17 1017.1 975.4
18 25.04 штиль 0 10 км {морось} 10/10 540 м
[Cu Sc]
+19.9 +15.4 75 +22 +22 комфорт 1014.6 973.2 0.3
21 25.04 штиль 0 10 км 10/6 600 м
[Sc Ac As]
+19.0 +16.0 83 +20 +20 1014.0 972.6
00 26.04 штиль 0 10 км 10/10 600 м
[Sc]
+18.4 +16.9 91 +19 +19 1016.2 974.6 +16.3 +20.0
03 26.04 З 1 10 км 10/10 600 м
[Sc]
+18.0 +17.0 94 +19 +19 1017.3 975.8

 

Местоположение метеостанции Сан-Рамон-де-ла-Нуэва-Оран (Аргентина): широта -23.15 долгота -64.31 высота над уровнем моря 357 м.

В архиве по умолчанию представлена погода в Сан-Рамон-де-ла-Нуэва-Оране за последнюю неделю. Архивные данные за месяц целиком и за предыдущие месяцы, начиная с января 2011 года, Вы можете получить, выбрав интересующий диапазон дат из раскрывающегося списка и нажав кнопку "Ввод!".


*Определитесь, кто Вы:
робот инопланетянин человек

Внимание! Время в таблицах - всемирное. Для получения местного времени необходимо прибавить поправку, которая равна -3 ч.

Смотрите также архив погоды в соседних городах и на ближайших метеорологических станциях:

Погода в Бермехо (Боливия) (43 км)
Погода в Тартагале (Аргентина) (79 км)
Погода в Якуибе (Боливия) (150 км)
Погода в Сан-Сальвадор-де-Жужуе (Аргентина) (158 км)
Погода в Ла-Кьяке (Аргентина) (177 км)
Погода в Тарихе (Боливия) (182 км)
Погода в Сальте (Аргентина) (223 км)
Погода в Вилья-Монтесе (Боливия) (229 км)
Погода в Пратс-Гиле (Парагвай) (292 км)
Погода в Камири (Боливия) (360 км)

Пояснения к столбцам:

Ветер - указаны скорость ветра в м/с - средняя за 10 мин, порывы в срок и между сроками (в фигурных скобках) и направление, откуда дует ветер: С - северный, СВ - северо-восточный, В - восточный, ЮВ - юго-восточный, Ю - южный, ЮЗ - юго-западный, З - западный, СЗ - северо-западный.
Видимость - горизонтальная дальность видимости в метрах или километрах. При видимости от 1 до 10 км при отсутствии осадков обычно наблюдается дымка, при ухудшении видимости до 1 км и менее - туман. В сухую погоду видимость может ухудшаться дымом, пылью или мглою.
Явления - указаны атмосферные явления, наблюдавшиеся в срок или в последний час перед сроком; фигурными скобками обозначены явления, наблюдавшиеся между сроками (за 1-3 часа до срока); квадратными скобками обозначены град или гололедные отложения с указанием их диаметра в мм.
Облачность - указаны через наклонную черту общая и нижняя облачность в баллах и высота нижней границы облаков в метрах; квадратными скобками обозначены формы облаков: Ci - перистые, Cs - перисто-слоистые, Cc - перисто-кучевые, Ac - высококучевые, As - высокослоистые, Sc - слоисто-кучевые, Ns - слоисто-дождевые, Cu - кучевые, Cb - кучево-дождевые. Подробнее классификацию облаков см. в Атласе облаков (PDF).
T - Температура воздуха - температура, измеренная на высоте 2 м над землей.
Td - Температура точки росы - температура, при понижении до которой содержащийся в воздухе водяной пар достигнет насыщения.
f - Относительная влажность воздуха - влажноcть воздуха, измеренная на высоте 2 м над землей.
Te - Эффективная температура - температура, которую ощущает одетый по сезону человек в тени. Характеристика душности погоды. При расчете учитывается влияние влажности воздуха и скорости ветра на теплоощущения человека.
Tes - Эффективная температура на солнце - температура, которую ощущает человек, с поправкой на солнечный нагрев. Характеристика знойности погоды. Зависит от высоты солнца над горизонтом, облачности и скорости ветра. Ночью, в пасмурную погоду, а также при ветре 12 м/с и более поправка равна нулю.
P - Атмосферное давление - приведенное к уровню моря атмосферное давление.
Po - Атмосферное давление - измеренное на уровне метеостанции атмосферное давление.
Tmin - Минимальная температура - минимум температуры воздуха на высоте 2 м над землей.
Tmax - Максимальная температура - максимум температуры воздуха на высоте 2 м над землей.
R - Количество осадков - Количество выпавших осадков за период времени, мм. При наведении курсора мыши на число - период времени, за который выпало указанное количество осадков.
R24 - Количество осадков - Количество выпавших осадков за 24 часа, мм.
S - Снежный покров - Высота снежного покрова, см. При наведении курсора мыши на число - состояние снежного покрова и степень покрытия местности в баллах.